Theta_e
352 353 354 354 354 354 353 348 347 351 353 353 353 352 352 354 353 353 352 352 352 352 352 352 352 354 352 350 354 355 351 349 350 351 349 345 345 349 351 350 348 348 347 346 348 353 356 356 352 347 346 346 346 349 353 354 354 353 352 353 353 352 351 352 354 353 350 348 346 346 349 351 353 353 352 352 352 352 351 348 348 347 346 345 344
350 352 353 353 353 353 354 353 352 353 353 352 353 353 353 354 353 352 351 350 350 351 352 354 354 355 355 354 354 354 352 350 352 354 352 347 345 346 348 349 347 346 345 345 349 351 354 354 349 345 345 345 344 347 352 353 352 352 352 353 353 353 354 354 355 354 351 347 345 346 349 352 353 352 351 351 352 351 350 347 346 347 347 347 346
349 350 351 352 352 353 354 354 354 354 352 352 353 352 353 354 353 352 351 351 351 350 351 355 354 354 356 356 353 353 354 351 351 353 354 351 347 347 351 350 347 346 344 345 348 347 348 350 348 346 349 352 351 352 354 354 354 354 354 353 354 354 355 355 354 354 350 345 345 347 348 349 349 348 349 351 351 350 349 347 346 346 346 346 346
349 350 350 350 351 352 352 353 353 353 352 351 351 351 351 353 355 354 352 353 353 350 351 353 351 350 354 354 352 351 353 352 351 353 354 352 347 347 351 352 350 349 349 349 350 349 350 352 351 350 352 355 355 355 355 355 354 353 352 353 354 353 354 354 353 352 349 346 347 347 347 347 347 348 349 349 349 348 348 347 346 345 345 345 346
350 350 351 351 351 351 351 351 352 352 352 351 349 350 350 350 353 354 353 353 353 351 351 351 349 350 351 351 351 351 351 351 353 354 354 355 352 348 348 350 351 351 353 354 354 354 356 357 355 355 355 355 355 355 354 354 354 354 353 353 354 353 355 356 355 353 351 350 350 349 348 348 348 349 348 347 347 347 346 345 345 344 344 344 345
352 351 352 351 351 351 351 351 350 350 351 351 349 349 349 349 351 353 353 352 352 352 352 351 350 351 351 350 349 351 351 352 355 354 352 353 354 351 350 351 353 352 353 354 353 353 354 355 354 355 355 355 355 355 354 353 354 354 354 353 354 354 355 355 355 354 353 353 353 352 351 350 349 348 345 344 345 345 345 345 344 343 343 344 346
354 352 351 350 349 350 351 351 351 351 351 351 350 349 348 348 348 351 353 352 351 351 351 351 351 350 350 350 349 350 351 353 354 355 353 351 351 352 352 352 354 354 354 353 352 353 354 354 354 353 353 353 354 354 353 353 353 353 353 352 352 353 354 354 354 354 354 353 352 352 350 348 346 345 343 343 344 344 345 344 341 342 344 345 346
357 355 352 349 347 348 350 352 352 352 351 351 350 350 349 348 348 349 351 351 350 350 350 351 351 351 351 352 352 351 351 352 353 354 355 354 353 354 354 353 354 355 355 354 353 354 355 355 354 354 353 352 351 351 351 352 352 352 352 352 352 353 354 354 353 353 351 349 347 345 344 342 344 345 344 344 344 343 342 341 342 344 344 343 342
355 355 355 353 351 351 353 353 352 352 352 352 351 351 350 349 348 348 349 350 349 349 349 350 351 351 351 353 353 352 352 353 353 353 355 355 355 356 355 354 354 355 355 355 354 354 354 353 353 352 350 350 350 350 351 351 351 350 350 349 349 349 349 348 347 346 344 343 341 340 341 343 345 346 345 344 344 343 342 343 344 343 341 341 341
351 351 351 352 352 354 356 354 351 352 352 352 353 352 351 351 351 350 349 350 350 349 349 350 351 351 351 352 353 352 352 353 353 353 354 355 355 355 355 354 354 354 353 354 353 353 353 353 352 350 349 349 350 350 350 349 349 349 347 346 343 340 339 338 338 337 336 336 338 340 344 347 347 346 345 344 345 345 345 344 343 341 343 345 345
353 353 352 351 350 351 353 352 352 353 353 351 352 353 351 351 352 352 350 349 350 351 350 350 350 350 350 351 352 353 353 353 352 352 353 353 354 354 354 353 353 351 351 352 352 352 352 352 351 349 349 349 349 349 350 350 350 349 347 343 339 336 335 335 335 335 336 337 338 340 344 346 345 344 343 345 346 347 345 344 343 345 347 350 348
349 350 351 352 352 351 351 352 353 354 353 352 353 354 353 351 351 351 352 350 350 351 351 350 350 350 351 352 352 352 353 352 351 350 350 351 350 349 350 351 351 350 350 349 349 350 351 351 351 349 347 347 347 348 350 351 351 351 349 347 343 340 339 338 339 340 340 342 342 342 343 344 344 343 343 346 347 347 346 346 347 349 350 351 350
344 345 346 348 350 350 351 351 353 354 354 354 354 353 353 353 351 350 350 348 349 351 350 349 351 351 352 353 351 351 352 352 351 349 348 348 347 345 345 347 348 347 348 348 347 349 351 351 351 351 349 347 347 347 348 349 349 349 349 347 345 344 343 343 343 343 344 345 345 345 345 345 345 345 346 348 349 350 350 350 350 351 351 350 349
347 348 348 348 348 348 348 348 350 351 352 352 352 351 352 354 353 351 349 347 348 349 349 349 351 352 352 353 353 351 350 349 348 348 347 347 346 344 343 345 345 344 345 346 346 346 348 348 349 351 352 351 351 350 350 348 348 349 348 348 348 349 348 347 347 346 346 347 347 347 347 347 348 347 348 350 353 353 353 351 350 351 350 349 347
352 352 351 351 350 349 349 349 349 349 349 349 350 350 351 352 352 350 349 348 348 348 348 348 351 351 351 351 352 351 349 346 346 346 346 346 345 345 344 345 345 344 343 345 347 347 346 347 348 349 351 351 352 352 352 351 351 351 352 353 354 354 354 352 350 348 348 348 348 348 348 350 350 349 349 351 353 353 351 351 350 349 348 347 345
351 352 352 352 352 351 350 350 350 350 349 348 348 348 348 348 348 347 346 345 346 348 348 348 349 350 350 350 349 349 347 346 345 346 347 347 346 346 346 346 347 345 343 343 346 348 348 347 347 347 348 350 350 351 352 352 353 354 353 353 354 355 354 351 349 349 348 347 347 348 349 351 352 351 350 350 351 351 350 350 350 348 348 348 347
347 348 349 350 350 351 350 350 350 350 350 350 350 349 349 347 346 345 343 343 344 345 347 349 349 349 349 349 347 347 347 346 345 346 349 349 348 348 348 349 349 348 345 342 342 344 346 347 347 347 347 348 348 349 351 353 354 355 355 354 353 351 349 347 347 348 347 344 344 346 347 349 350 350 350 350 350 351 351 350 349 348 350 351 351
345 345 346 347 347 347 348 348 348 348 349 350 350 350 350 349 348 347 347 347 347 347 348 348 348 349 349 348 347 347 347 346 345 346 348 349 349 349 349 350 349 347 345 344 342 341 343 344 345 346 346 346 346 347 349 352 354 355 355 353 351 349 348 348 348 348 346 344 344 344 345 346 347 348 349 349 349 349 349 349 350 351 353 354 354
342 342 342 342 343 344 344 345 346 347 347 348 349 349 349 349 350 350 350 350 350 350 349 349 349 349 348 348 348 348 348 348 347 348 349 347 347 348 349 349 349 348 346 346 346 345 345 345 345 346 346 345 344 345 346 349 352 352 351 350 349 349 350 350 349 349 349 347 346 346 346 346 346 347 347 347 347 348 348 350 352 353 354 353 353
337 338 338 339 339 340 341 342 343 344 345 345 346 347 347 347 348 349 349 350 350 350 350 350 350 349 348 349 351 349 348 348 348 349 350 348 346 348 350 350 350 350 349 349 348 348 348 347 347 346 345 343 344 346 348 350 350 350 350 350 350 350 350 350 349 349 349 348 347 347 346 345 345 346 346 347 349 350 351 352 352 353 354 352 351
333 333 334 335 335 336 337 339 340 341 342 343 344 344 345 346 346 346 346 347 347 347 348 348 349 348 348 350 351 349 348 348 348 348 349 348 346 346 349 350 351 351 351 350 349 349 349 349 348 348 347 346 346 347 349 350 350 350 350 351 351 350 350 349 349 349 349 349 348 348 347 347 348 349 350 350 351 351 352 352 353 353 353 352 350
329 331 332 332 333 334 334 335 337 339 340 341 342 343 344 345 345 345 345 345 345 345 346 346 345 344 345 349 350 348 349 349 348 347 348 349 347 345 347 350 351 351 350 350 350 350 349 349 348 348 348 348 348 349 349 350 350 350 350 350 350 350 349 349 349 349 349 349 348 348 348 349 349 350 350 350 350 350 350 351 351 351 351 350 350
320 324 328 329 330 332 334 334 334 335 337 340 341 342 343 344 344 344 344 344 343 343 344 344 343 342 343 345 347 349 349 349 348 348 348 349 348 347 348 349 350 349 349 349 349 349 348 349 349 348 347 348 348 349 350 350 350 350 350 350 349 348 347 347 347 347 347 347 347 348 348 348 349 349 348 349 349 349 349 349 349 349 349 349 350
319 318 319 320 323 327 331 334 334 333 333 335 337 338 340 341 342 342 342 343 342 342 343 343 343 343 341 340 342 345 345 344 345 346 346 345 345 345 346 347 347 347 347 346 347 348 348 347 347 348 348 347 348 348 349 349 348 348 347 346 344 342 341 341 342 344 345 346 347 348 347 347 347 347 347 348 347 347 348 347 346 346 347 348 349
326 322 318 317 322 325 326 329 331 333 333 332 333 334 335 337 338 338 339 340 340 341 342 342 342 343 342 340 339 340 340 338 338 339 339 339 339 338 338 338 339 340 342 343 345 344 340 336 335 336 337 338 339 340 341 341 340 340 340 340 339 339 341 343 344 345 347 347 347 346 346 347 347 347 347 347 347 348 348 346 344 342 342 343 343
325 325 323 322 324 325 323 323 325 328 330 331 332 332 333 334 335 335 336 336 337 337 338 339 340 341 341 339 338 339 339 337 334 333 332 330 329 328 327 326 327 328 330 332 332 330 326 322 320 320 322 324 324 325 329 332 334 336 339 340 341 342 343 344 344 345 345 344 344 344 344 344 342 338 335 335 337 337 338 337 333 329 328 328 328
323 324 326 325 324 324 324 324 324 323 325 328 329 330 331 332 333 334 334 334 335 335 335 336 337 337 337 338 337 337 338 336 334 332 330 327 325 324 324 322 322 322 321 321 321 320 318 317 317 321 325 326 323 323 328 333 335 337 339 341 341 341 340 342 343 343 342 342 342 341 338 333 328 322 320 321 323 325 325 323 320 318 318 317 317
323 324 324 322 323 324 324 324 326 324 323 324 325 326 329 330 329 331 334 333 333 333 334 334 334 334 336 337 337 337 337 336 335 334 332 330 327 326 326 325 324 322 321 320 318 317 315 315 320 330 336 335 332 330 332 333 334 334 335 337 336 335 336 338 340 339 339 339 337 333 330 325 321 319 322 326 330 332 330 325 322 321 319 318 319
323 324 324 323 324 325 324 323 326 327 325 324 322 319 322 322 319 321 329 333 332 332 333 333 332 332 334 335 335 336 335 335 334 333 332 332 329 327 324 322 320 318 317 315 314 313 313 313 322 335 340 338 335 334 333 333 333 333 332 332 331 331 334 335 335 335 335 333 329 328 328 326 323 325 329 333 334 334 331 330 330 329 327 327 330
323 322 322 322 324 326 325 323 324 325 327 328 325 318 315 315 312 312 316 321 325 329 332 331 331 331 331 331 332 333 333 334 333 332 331 329 325 320 316 313 311 311 310 310 310 310 309 315 326 336 337 334 333 334 333 333 333 332 332 331 331 331 332 332 332 332 331 328 326 327 326 325 326 329 331 332 330 328 328 330 331 330 329 331 333
324 322 320 317 318 323 323 322 323 324 323 326 327 323 321 321 321 318 313 311 312 316 320 322 324 325 324 322 322 323 325 325 324 321 319 315 313 311 309 308 308 308 307 308 308 308 312 323 333 337 335 333 332 333 332 332 331 331 330 330 330 330 330 329 329 329 327 326 325 324 324 326 328 329 327 326 325 325 325 326 325 324 326 329 330
322 322 321 318 316 317 318 318 321 323 321 321 324 325 325 326 326 323 318 315 313 311 310 310 311 312 312 311 310 311 312 312 310 309 308 307 307 307 307 306 307 307 306 307 307 307 316 329 335 335 333 333 332 331 331 330 330 329 328 328 328 328 327 327 327 326 325 325 324 323 325 327 328 326 324 324 324 325 324 323 321 321 323 325 326
317 317 318 318 317 316 316 316 317 319 319 320 322 323 324 325 325 323 322 322 321 318 315 313 311 310 310 310 309 308 308 307 307 307 307 307 307 307 307 307 307 307 308 310 309 308 317 329 333 331 331 331 329 329 329 328 328 327 326 326 326 326 325 325 324 324 325 325 323 322 324 326 325 323 324 324 324 325 325 324 323 323 324 324 324
308 307 307 309 310 312 315 314 313 313 313 313 318 322 323 322 322 323 324 324 324 322 320 319 318 316 313 312 310 309 309 309 308 309 309 308 309 309 309 309 309 311 315 319 319 316 320 328 330 329 329 329 328 328 328 327 326 326 325 324 325 325 324 324 324 323 324 323 321 321 323 324 323 323 324 324 324 324 324 323 323 323 323 323 323
306 306 305 305 305 307 308 308 307 307 306 306 311 318 320 320 320 323 324 323 323 322 322 322 321 319 316 315 314 312 310 310 309 309 310 310 310 310 309 310 314 320 324 326 326 325 324 326 327 326 327 327 326 326 326 325 325 324 323 323 323 323 323 323 323 322 322 321 320 321 322 322 322 323 322 322 322 322 322 322 322 322 322 322 322
313 311 308 307 307 306 306 305 304 304 305 305 307 314 319 321 322 323 323 323 322 321 321 322 321 319 319 320 319 315 312 312 312 311 311 311 311 311 312 315 321 324 325 325 326 326 326 326 326 325 325 325 324 324 324 324 323 323 323 323 322 322 322 322 321 321 320 320 321 321 321 321 321 321 321 321 321 321 321 321 320 320 320 320 318
315 313 310 309 309 308 308 307 305 304 306 306 308 314 319 320 321 321 321 321 320 318 319 321 320 320 321 323 321 317 314 316 318 318 317 316 317 318 320 323 324 324 324 324 325 325 326 326 326 326 325 325 324 324 323 323 323 323 322 322 321 321 321 320 320 320 320 320 321 320 320 320 320 320 320 320 320 319 319 319 319 319 318 317 316
313 312 310 310 310 310 309 308 306 305 306 308 311 315 318 318 319 319 319 319 319 319 320 321 320 320 321 321 320 317 315 316 318 320 320 320 321 322 323 324 324 323 324 324 325 324 324 325 325 325 326 325 325 325 324 323 323 322 322 321 321 320 319 319 319 319 319 319 319 319 319 319 319 319 319 319 318 318 318 317 317 316 315 315 315
313 312 312 311 311 311 310 308 307 307 309 310 312 314 316 317 318 318 317 318 319 320 320 319 319 319 320 319 318 318 317 315 314 317 320 320 320 321 321 321 322 322 323 323 324 324 324 324 324 325 325 325 325 325 324 323 322 322 321 321 320 319 318 318 317 318 318 318 318 318 318 318 317 317 317 317 317 317 316 316 315 315 314 314 314
314 313 312 312 313 312 310 309 310 312 313 311 310 312 315 317 316 315 316 317 318 318 317 317 317 317 316 315 314 315 314 312 312 315 318 318 318 318 319 319 321 321 321 322 322 322 323 323 324 324 324 325 325 324 323 323 322 321 321 320 319 318 318 317 317 317 317 317 317 317 316 316 316 316 316 315 315 315 315 314 314 314 314 314 313
315 315 314 313 312 312 311 311 312 313 313 310 308 311 315 315 315 315 315 316 316 316 316 315 315 314 313 313 312 311 310 309 311 314 316 316 316 316 316 316 317 319 319 320 320 320 320 320 321 322 323 323 323 323 322 322 321 320 320 319 318 318 317 317 316 316 316 316 316 315 315 315 314 314 314 314 313 313 313 313 313 313 313 312 312
315 315 315 314 313 312 312 313 313 311 310 309 309 309 311 312 313 314 314 314 314 314 314 314 314 313 312 312 311 310 309 309 312 314 315 315 314 314 313 313 313 314 315 316 317 317 317 317 317 318 320 320 321 321 320 320 319 319 318 317 317 316 315 314 314 314 314 314 314 313 313 313 313 313 313 313 312 312 311 311 310 310 310 310 309
314 313 313 313 313 313 313 313 312 310 310 310 310 309 309 310 310 311 312 312 313 313 313 313 313 312 311 311 310 309 309 311 312 313 313 313 312 313 312 312 311 311 311 312 312 313 314 314 314 315 315 316 316 316 316 316 316 316 315 315 314 313 313 312 312 312 312 312 312 312 312 312 312 312 312 311 311 310 309 309 308 308 308 308 308
314 313 312 312 312 312 312 311 311 311 310 310 309 308 308 308 308 309 310 311 311 311 311 311 311 310 310 309 308 308 310 311 311 311 311 311 311 311 311 311 311 310 309 309 308 309 309 310 310 310 310 311 311 311 311 312 312 312 312 312 311 311 311 311 310 310 310 310 310 311 310 310 310 310 310 309 308 308 307 306 305 306 306 306 307
312 311 311 312 312 312 312 311 310 310 310 309 309 309 309 308 308 309 309 309 309 309 309 309 308 308 308 308 307 307 308 308 308 309 309 309 309 309 310 310 310 309 308 308 307 307 307 307 307 307 307 307 308 308 308 309 309 309 309 309 309 309 308 308 308 308 308 308 308 308 308 308 308 307 307 306 305 304 303 302 302 303 303 304 304
311 310 311 312 312 312 312 311 311 310 309 309 309 309 310 309 309 309 309 308 308 307 307 307 306 306 307 306 306 306 306 306 306 306 306 307 307 308 308 308 309 309 308 307 306 306 306 306 306 306 306 306 306 306 306 306 307 307 307 307 306 306 306 306 306 306 305 305 305 305 305 305 305 304 303 303 302 301 301 301 301 302 302 303 303
310 310 310 311 311 311 311 311 310 310 309 308 307 308 308 308 308 307 307 307 306 305 305 305 305 305 305 305 305 305 304 304 304 304 305 305 305 305 305 306 306 307 307 307 306 305 305 305 305 304 305 305 305 305 305 305 305 305 305 305 305 305 304 304 304 304 304 303 303 303 303 303 302 301 300 300 300 300 300 300 301 302 303 303 304
309 309 310 310 310 310 310 309 309 308 307 306 306 306 307 307 306 306 305 305 305 304 304 304 304 304 304 304 304 303 303 303 303 303 303 303 302 302 302 303 303 304 304 305 305 305 304 304 304 303 303 304 304 304 304 304 304 304 304 303 303 303 303 303 303 303 302 302 302 302 301 301 300 299 299 299 299 299 300 300 301 302 303 303 304
308 309 309 309 308 308 308 308 308 307 307 306 306 306 305 305 305 304 304 304 304 303 303 303 303 303 302 302 302 302 302 302 301 301 301 301 301 300 300 300 300 301 301 302 302 303 303 303 303 302 302 302 302 302 303 302 302 302 302 302 302 302 302 302 302 301 301 301 301 300 300 299 298 298 298 298 298 299 300 301 302 302 303 303 304
309 309 308 308 307 307 307 306 306 306 305 305 305 305 304 304 304 304 304 303 303 302 302 302 302 301 301 301 301 301 301 300 300 300 300 300 300 299 299 299 298 298 298 298 299 299 300 300 301 301 300 300 300 301 301 301 301 301 301 301 301 300 300 300 300 300 299 299 299 298 298 297 297 297 297 298 298 299 300 301 302 302 303 303 304
308 307 306 306 306 306 305 305 305 304 304 303 303 303 303 303 303 303 303 302 302 301 301 301 301 300 300 300 300 300 299 299 299 299 298 298 298 298 297 297 297 297 297 296 297 297 298 298 298 298 298 298 299 299 299 299 299 299 299 299 299 299 299 298 298 298 298 297 297 297 296 296 297 297 297 298 298 299 301 301 302 302 303 303 304
Wind_Speed
20 19 18 18 18 18 18 18 18 17 17 16 13 12 12 13 13 13 13 14 14 13 13 11 10 9 10 10 12 12 11 10 10 10 9 10 10 8 8 9 9 7 7 7 7 7 8 10 10 10 10 10 9 8 7 7 7 7 7 8 9 11 12 12 12 14 13 11 11 10 8 9 11 12 14 14 12 13 16 15 15 14 14 15 16
20 19 18 18 18 17 17 17 17 17 16 16 14 13 13 14 14 15 15 15 15 15 13 11 11 11 11 11 13 13 12 11 11 11 10 10 9 10 10 10 8 7 8 9 8 9 9 11 11 9 8 8 8 7 6 6 7 8 9 9 10 10 10 11 11 14 15 13 11 10 9 9 11 12 12 12 13 15 16 16 15 13 13 15 15
19 19 18 18 18 17 17 17 17 17 16 16 16 15 15 14 14 15 14 14 15 16 15 14 14 13 13 14 14 14 13 12 12 12 11 11 10 11 11 11 9 8 9 9 9 9 10 10 9 8 7 7 8 7 7 7 8 9 9 8 8 8 9 10 12 14 15 13 10 11 11 11 11 12 11 12 13 14 16 16 15 14 14 14 15
19 19 19 18 17 17 17 17 16 16 17 16 16 16 15 14 15 16 15 13 15 16 15 16 16 15 16 16 15 15 15 14 13 13 13 12 11 10 12 12 11 9 9 9 9 9 9 9 9 7 7 8 10 10 9 8 9 10 9 8 8 8 9 11 11 11 13 13 11 12 12 12 12 12 12 14 15 15 15 16 17 16 15 15 15
19 20 20 19 18 17 16 16 16 16 16 16 16 16 16 15 16 17 16 15 16 16 15 16 16 15 16 16 15 16 16 15 15 15 15 14 11 11 12 13 11 10 10 10 11 10 10 10 10 9 8 9 10 10 8 8 9 9 7 7 8 8 7 9 10 11 12 13 13 13 13 13 13 13 13 15 15 15 15 16 17 18 19 20 18
22 22 22 21 20 19 17 16 16 16 16 16 16 16 16 16 16 17 18 17 17 16 15 15 15 15 16 16 15 16 16 16 16 16 15 15 14 13 12 12 12 12 13 13 12 12 12 12 11 10 10 10 9 9 9 8 9 8 7 7 10 10 9 9 10 11 12 13 14 14 14 13 13 13 13 12 13 15 16 16 18 19 20 19 17
25 25 23 22 20 20 19 17 16 16 16 16 16 15 16 16 16 17 18 19 18 17 17 16 15 15 16 16 16 16 17 17 17 17 16 15 15 14 13 13 13 13 14 14 13 11 11 12 12 11 11 11 10 10 10 9 10 9 8 9 10 11 11 10 10 11 12 13 13 13 13 13 13 13 13 13 13 15 15 16 18 18 16 15 16
24 23 22 22 20 19 19 18 16 16 16 16 16 15 16 16 17 18 19 19 18 18 18 18 17 15 15 16 16 16 17 17 17 17 17 15 15 15 13 13 13 13 13 13 12 11 12 13 13 12 12 11 11 11 10 10 10 10 9 10 10 11 12 12 12 13 13 14 15 15 15 15 14 14 15 15 15 15 16 17 16 16 16 19 21
21 20 20 21 21 20 20 19 18 18 17 17 17 17 17 16 15 17 19 19 18 19 19 18 18 17 16 17 17 17 17 17 17 17 17 16 16 15 15 14 14 14 13 12 12 11 12 12 13 13 12 12 13 13 11 11 12 12 13 13 14 14 15 15 15 15 15 16 17 17 17 17 16 16 16 16 16 17 17 15 15 18 22 24 24
19 18 19 20 20 19 20 21 22 22 21 20 19 20 20 17 15 15 17 17 16 17 18 19 20 20 20 20 20 18 17 17 17 16 17 17 16 15 16 15 13 14 14 13 13 12 12 12 12 13 13 13 14 14 14 14 15 17 18 18 18 18 18 18 17 17 17 18 18 18 18 17 17 17 18 17 17 17 17 17 19 23 24 25 25
19 17 17 19 20 20 20 21 23 23 24 23 22 23 23 22 19 18 18 19 16 15 17 18 19 20 19 19 19 17 17 17 17 16 16 17 16 15 15 14 13 14 15 14 14 14 13 12 12 13 14 15 15 15 15 16 17 18 19 18 18 18 18 18 18 17 17 18 18 18 18 18 18 18 18 17 17 18 20 21 22 23 23 25 28
18 17 17 18 18 20 20 20 22 24 25 25 24 23 24 25 24 21 20 20 19 17 16 16 16 16 16 16 17 16 15 18 18 15 14 16 17 16 14 13 12 14 13 13 13 13 13 13 13 13 14 15 14 13 14 15 16 17 16 16 16 17 17 17 17 17 17 18 19 19 19 19 19 20 19 18 19 20 21 21 21 23 24 26 30
21 21 21 21 20 20 21 21 22 24 25 25 26 25 24 24 25 24 22 21 20 18 17 17 18 18 16 15 15 15 17 19 19 17 15 17 18 17 15 14 14 14 13 14 14 13 13 15 15 14 15 15 13 13 14 17 18 18 18 18 17 16 16 17 17 17 17 18 19 20 20 20 20 20 19 18 19 19 20 22 22 24 27 29 33
18 19 20 21 22 23 23 23 24 24 24 25 27 28 27 25 24 24 24 23 23 22 20 19 21 22 21 19 16 17 19 19 17 17 17 18 20 19 17 17 16 15 14 14 14 14 15 15 15 15 16 16 15 15 16 17 18 19 20 21 18 16 16 17 17 18 18 20 22 22 22 21 20 20 19 16 16 18 20 23 25 27 30 32 34
14 15 16 17 18 21 22 23 25 26 26 27 28 30 29 27 26 25 25 25 25 26 25 23 23 23 24 24 23 23 23 19 16 16 15 17 21 21 19 19 19 17 16 14 13 14 15 16 16 16 15 16 16 16 16 16 17 18 19 20 19 17 17 16 17 19 20 20 21 23 23 22 21 21 19 17 17 20 23 26 29 31 32 34 35
11 13 16 15 15 17 19 20 22 22 22 24 26 29 31 31 31 31 30 29 28 28 27 26 26 25 25 25 25 25 25 21 18 18 15 14 18 20 18 19 20 20 18 16 15 14 15 17 19 19 19 19 18 19 19 19 19 20 20 21 21 19 18 18 18 19 20 19 19 20 20 21 22 22 22 22 23 25 27 29 30 31 32 34 35
7 8 13 15 15 16 17 18 18 19 19 20 22 24 26 28 29 31 32 32 31 31 29 28 28 27 27 27 26 25 24 21 18 19 18 17 18 19 20 20 20 20 18 17 18 19 18 19 20 19 20 20 20 21 21 21 21 22 22 23 23 23 23 23 20 20 22 23 23 21 20 21 23 23 24 25 26 27 29 31 31 31 30 30 31
4 4 6 8 9 10 12 13 14 16 17 18 18 19 19 20 21 24 26 26 27 28 29 29 29 28 28 29 28 25 23 21 18 19 22 23 22 22 23 23 22 21 19 18 20 21 21 22 22 21 22 21 21 22 22 20 20 22 22 23 24 24 24 24 24 23 25 26 25 24 24 24 24 24 25 26 27 28 30 30 29 27 26 26 27
9 9 9 8 5 3 3 5 7 10 13 13 14 15 16 17 17 18 19 20 21 23 25 26 28 29 30 31 29 24 21 19 18 20 23 25 25 24 24 24 23 22 21 21 21 21 21 21 22 22 22 22 21 22 21 21 21 23 24 25 24 23 21 23 24 25 26 26 25 25 25 25 25 26 27 28 29 29 28 27 25 24 24 25 26
10 10 11 10 8 6 4 4 5 5 5 5 5 7 10 12 13 14 16 16 17 18 20 23 26 29 32 33 30 25 22 18 17 20 23 23 23 23 23 23 24 23 22 21 20 21 22 22 22 22 22 22 21 21 21 21 22 23 23 22 22 22 22 23 24 25 26 26 26 26 26 26 26 26 26 26 25 25 25 25 25 24 24 25 26
9 10 12 12 10 9 7 5 5 4 3 3 2 3 4 4 4 6 8 10 11 13 14 16 17 18 24 29 28 24 22 19 17 19 21 20 20 20 21 22 24 23 20 18 17 19 20 22 23 23 22 22 22 21 21 21 21 21 20 20 20 21 22 23 22 23 23 23 23 24 24 24 23 22 22 22 22 22 23 23 23 22 22 24 25
9 10 12 12 13 13 11 8 6 5 5 6 4 4 4 3 2 1 2 3 5 7 8 9 7 6 12 20 23 21 20 19 19 20 20 18 18 19 19 19 20 19 16 15 15 16 18 19 20 21 21 22 22 22 21 20 19 18 17 17 19 20 21 21 20 19 19 19 19 19 19 19 19 17 17 18 19 20 21 20 20 20 19 20 21
7 9 10 11 12 12 10 8 6 5 7 8 7 6 5 5 5 5 5 5 4 3 2 4 4 4 7 12 16 18 18 18 18 19 18 16 15 15 14 15 15 15 13 12 13 15 16 16 17 17 18 19 20 21 21 20 19 18 17 17 18 18 19 19 18 16 15 15 14 14 14 14 14 14 14 15 16 17 18 18 18 17 17 18 19
7 7 8 11 12 11 9 9 9 9 9 9 10 9 8 8 9 10 10 10 10 8 7 7 5 5 5 6 7 9 11 12 11 12 13 12 10 9 10 11 12 12 11 11 12 14 15 14 15 15 16 16 17 18 18 18 18 17 16 15 14 13 13 12 11 10 10 10 10 10 10 10 11 13 14 15 16 17 17 17 16 16 16 17 18
8 7 7 9 11 10 9 9 10 11 10 9 9 9 8 8 10 9 8 11 12 11 9 8 8 8 7 5 5 5 4 6 6 6 7 7 6 6 6 6 7 9 10 10 10 11 10 10 9 10 11 12 12 12 12 12 10 9 7 7 7 7 7 6 6 7 8 9 8 8 8 9 11 14 15 16 16 17 17 17 17 17 18 19 20
8 9 8 8 8 7 7 8 8 9 9 8 7 7 7 8 9 8 7 10 11 10 9 8 6 8 9 8 7 5 4 5 6 5 5 4 4 4 4 5 5 5 6 6 6 6 5 5 5 6 7 8 8 7 6 4 2 2 2 2 3 5 7 8 8 9 10 10 10 11 11 13 14 16 17 17 17 17 17 18 19 20 21 21 21
6 7 7 7 7 6 7 9 7 5 8 8 6 8 7 4 3 5 8 9 9 8 8 7 6 7 7 6 5 5 4 3 3 3 2 2 2 1 1 2 2 1 2 2 2 3 4 5 5 5 6 7 5 3 2 2 1 2 1 2 3 5 7 8 8 9 10 10 11 12 13 15 16 16 16 15 15 15 16 17 18 18 18 18 19
6 6 6 7 7 6 5 7 6 4 3 4 4 6 6 4 4 5 7 8 8 8 9 9 7 7 7 6 6 6 5 5 4 3 2 2 2 3 4 4 4 5 5 5 5 5 6 4 3 5 6 6 6 6 5 5 4 3 4 5 4 3 4 5 7 10 11 11 12 13 14 15 16 16 15 14 14 15 16 18 19 19 18 18 18
5 5 6 6 7 6 3 3 6 6 5 2 2 4 5 4 2 3 7 8 6 6 8 10 9 9 8 7 7 7 6 6 6 6 6 7 8 8 8 8 8 8 8 8 7 6 5 3 2 4 5 3 6 7 5 4 4 4 3 4 4 4 6 9 10 12 13 12 12 13 12 14 15 14 13 12 11 13 15 17 18 19 19 19 18
5 3 2 5 7 9 5 1 5 9 8 3 3 1 2 2 3 1 4 7 7 8 8 8 8 9 9 8 9 10 10 9 10 11 11 12 13 12 11 11 10 9 9 9 8 5 3 1 2 3 4 3 2 3 2 2 2 1 1 2 2 4 7 10 10 12 14 13 12 11 11 12 13 12 11 11 12 13 13 13 14 15 16 16 16
2 5 3 4 8 7 5 2 2 5 8 6 3 3 4 5 6 5 2 1 5 8 10 10 10 12 13 12 11 11 12 13 13 13 13 13 13 13 12 11 10 9 9 8 6 3 1 2 2 2 4 3 2 2 2 3 3 2 3 3 2 4 9 12 13 15 15 13 12 10 10 12 12 11 12 12 13 14 14 13 14 13 13 13 14
7 2 2 3 6 5 3 3 3 2 4 5 4 3 4 7 7 6 6 5 3 2 4 6 8 9 11 11 10 10 11 12 12 12 12 12 11 11 11 10 9 9 9 7 5 3 3 4 3 2 4 3 3 3 2 3 4 4 5 6 5 7 11 14 15 16 14 13 12 9 10 11 13 13 13 13 13 14 15 15 15 14 13 13 14
7 6 4 5 6 5 3 3 4 3 3 5 7 5 3 3 4 6 8 8 8 6 4 3 3 4 5 6 8 9 10 10 10 10 10 10 10 10 9 9 8 7 6 5 4 4 5 5 3 1 3 3 3 4 4 5 5 4 6 7 6 7 11 12 12 12 12 14 14 11 9 12 15 14 14 13 13 14 15 15 15 15 15 16 17
4 4 4 4 5 6 4 3 3 2 3 5 7 5 2 1 2 5 7 7 8 8 8 8 7 6 5 5 5 6 8 9 9 9 8 8 7 6 5 5 3 2 4 5 5 1 4 4 1 2 3 2 3 4 5 6 5 3 5 6 7 9 11 10 10 11 14 16 15 12 10 13 15 14 14 14 15 15 15 15 15 16 16 17 18
4 4 3 3 2 1 2 2 2 1 0 4 6 5 3 2 3 3 4 4 5 7 8 9 9 8 9 9 8 7 7 7 6 5 5 5 4 4 3 1 2 4 6 7 6 4 1 2 3 4 4 4 5 5 5 5 5 5 7 9 9 9 8 7 7 10 13 14 13 11 11 13 14 14 14 14 15 16 16 15 15 16 16 16 18
3 3 3 4 4 4 4 4 3 3 3 2 5 5 4 4 3 3 2 2 1 2 4 6 8 9 10 10 10 8 7 6 5 4 3 4 4 5 5 5 5 5 6 6 5 6 6 5 5 6 7 7 8 7 6 5 6 7 8 10 10 9 9 9 10 12 12 12 12 12 12 13 13 13 13 14 15 15 15 15 15 15 16 18 21
2 2 3 3 4 4 4 4 4 3 3 2 4 5 4 2 2 2 2 1 1 1 2 3 6 7 6 8 8 4 9 11 10 10 9 8 9 8 8 8 6 3 3 2 2 3 4 3 3 5 7 8 9 9 10 11 11 11 11 11 11 10 10 10 10 11 10 11 12 12 12 13 13 12 12 14 14 14 15 15 16 19 21 22 23
2 0 1 2 3 4 5 5 5 4 2 2 3 4 3 2 2 2 2 2 2 2 3 2 2 1 2 5 9 5 4 6 6 8 9 9 7 4 2 2 1 4 5 4 4 6 7 7 5 5 5 6 6 7 8 10 12 13 13 13 12 11 10 8 8 9 10 10 11 12 12 12 12 11 12 15 16 17 18 20 22 24 25 24 23
3 1 1 2 3 4 4 5 5 4 3 2 1 2 3 2 2 2 2 2 1 1 2 1 3 6 6 8 12 12 9 7 2 4 7 6 4 4 4 5 7 8 8 6 5 6 7 7 7 8 9 9 9 8 7 6 7 10 12 14 15 14 13 12 12 13 12 12 13 14 14 14 15 15 15 16 17 19 21 22 23 23 23 24 25
5 3 3 2 3 3 4 4 4 3 3 3 2 2 3 1 1 1 2 1 0 1 1 2 6 9 10 11 14 16 16 12 4 3 5 4 7 9 9 10 11 11 10 9 8 8 8 8 9 9 9 10 11 11 10 9 10 11 12 14 14 14 13 15 17 19 17 16 16 17 17 16 17 18 19 19 20 22 23 24 24 25 25 26 28
5 4 5 4 3 4 3 2 3 5 7 7 4 1 2 2 2 2 2 2 1 1 1 4 8 9 10 14 16 16 14 7 4 4 4 5 7 10 11 12 14 14 13 12 11 10 9 10 11 12 11 10 11 12 12 12 13 14 14 14 15 16 17 18 18 19 19 18 18 19 19 18 18 18 19 19 21 23 24 25 26 27 28 29 31
8 6 5 6 6 5 2 2 6 8 8 6 5 6 7 7 6 5 4 4 2 1 1 3 7 10 12 16 16 11 4 2 5 3 3 2 4 8 10 10 11 13 14 13 13 13 12 11 12 13 13 13 14 13 13 14 15 15 16 17 17 17 17 17 16 17 19 19 20 21 21 21 21 20 20 21 22 23 23 25 27 29 31 34 34
10 9 8 7 5 3 2 5 7 7 6 6 7 9 10 10 10 8 5 2 2 2 1 1 4 7 10 14 11 2 6 5 2 2 4 2 3 6 6 6 7 9 11 11 12 14 14 14 15 15 16 17 17 16 16 17 17 17 18 19 18 18 18 18 17 18 19 19 19 20 21 23 24 25 25 26 28 28 29 31 34 34 33 33 32
12 10 8 7 6 6 8 9 7 5 6 8 10 10 10 9 7 6 4 1 1 2 1 3 7 7 7 11 9 1 4 3 5 7 6 3 3 5 7 6 7 9 9 8 8 9 10 10 12 12 13 14 16 16 17 18 18 18 19 19 19 19 19 18 18 18 20 21 21 22 23 25 27 28 30 31 32 34 35 35 34 32 30 28 28
12 9 7 5 6 6 8 9 8 6 6 6 5 5 7 6 3 1 1 2 5 7 8 7 7 5 4 6 7 5 3 5 6 5 4 6 9 10 9 9 10 9 7 6 7 8 8 7 7 7 8 10 12 13 14 14 14 16 18 18 18 18 18 17 18 19 21 23 24 25 26 28 29 31 33 34 34 35 35 33 31 29 28 27 26
9 8 6 6 6 6 7 7 5 4 3 3 2 2 3 3 1 3 5 7 10 11 10 7 4 3 3 4 5 5 4 4 3 2 4 8 12 12 10 10 10 10 8 8 9 8 7 7 7 7 7 8 9 9 9 9 11 15 16 16 16 17 17 18 20 21 23 24 26 27 29 30 32 33 34 34 34 33 32 31 29 27 26 25 25
10 8 6 6 6 7 8 8 7 7 7 7 6 3 2 2 3 6 9 10 10 9 6 4 3 2 3 4 4 3 3 3 2 2 4 8 11 11 12 12 12 12 11 11 9 6 5 6 7 8 7 7 7 7 7 9 13 16 16 17 18 18 19 20 22 24 25 26 28 30 31 32 33 34 34 34 33 32 30 27 25 23 23 23 23
9 7 6 7 7 7 7 8 9 9 9 8 6 4 5 6 6 5 5 6 5 3 3 3 3 3 3 3 3 3 3 4 3 3 4 6 7 7 7 8 9 11 12 12 11 8 5 5 7 8 8 8 7 7 8 12 15 17 18 19 20 21 21 22 24 26 28 29 30 31 33 34 35 34 33 32 31 30 27 24 22 21 21 22 22
7 5 6 8 9 8 6 6 5 4 4 3 4 4 4 5 4 3 3 2 2 3 3 3 3 3 3 3 3 3 3 4 4 3 4 4 5 5 5 5 5 7 9 10 12 11 8 7 8 8 7 7 6 6 10 15 18 18 20 21 22 23 24 26 27 29 30 31 32 33 34 34 34 32 30 29 28 25 22 21 21 21 21 21 21
5 6 6 6 6 7 8 8 8 6 6 6 6 4 3 3 2 2 3 3 3 3 3 3 3 3 3 2 3 3 3 3 3 3 3 4 4 4 5 5 5 7 7 7 7 6 6 7 9 9 8 8 6 5 10 17 20 19 20 22 23 24 26 28 29 30 31 32 32 32 31 30 28 26 26 25 24 21 20 20 20 20 20 20 21
8 9 7 6 7 8 7 7 7 7 7 7 7 5 4 4 3 3 3 4 4 3 4 4 4 3 3 3 3 3 3 3 3 3 3 3 4 5 5 5 5 6 6 5 4 3 3 5 6 6 6 7 5 4 10 17 20 19 21 23 24 25 27 28 29 29 29 28 27 26 24 23 22 22 21 21 20 19 19 19 19 18 19 20 21
Wind_Direction
190 191 193 192 197 201 201 203 201 195 197 207 211 208 206 212 215 212 214 217 219 223 224 218 212 216 226 226 222 227 230 224 225 229 227 231 235 233 241 249 246 241 243 238 225 224 244 259 257 248 245 247 246 239 237 259 280 276 264 262 258 260 271 280 287 297 307 312 309 310 313 310 313 318 318 323 326 316 309 312 317 325 333 332 324
195 194 193 193 197 200 201 203 202 199 200 204 208 207 206 218 225 219 218 219 218 221 223 219 219 220 219 220 223 226 228 224 221 227 230 229 230 235 243 248 245 242 242 238 232 231 240 255 262 257 256 262 263 255 250 258 270 272 272 270 261 259 274 283 289 297 304 311 311 310 316 318 312 309 312 321 320 311 313 320 324 324 322 319 318
196 197 194 195 198 199 199 202 204 204 204 205 208 208 208 217 227 228 225 221 221 223 219 217 222 221 217 219 221 223 230 231 225 226 232 233 230 232 239 245 245 247 250 246 240 239 241 248 257 256 252 266 274 268 257 251 252 262 273 280 277 278 285 284 287 295 303 309 311 310 314 315 312 318 326 323 316 313 318 324 326 324 319 315 319
195 196 196 196 198 199 200 202 203 206 208 209 211 212 212 213 219 230 231 221 226 230 221 220 229 227 223 225 223 222 227 232 232 230 230 235 239 235 235 241 245 247 252 252 249 251 251 252 260 260 243 245 255 257 254 250 255 264 267 266 272 275 275 279 286 294 300 307 310 313 320 323 329 337 334 322 318 321 323 323 327 333 336 334 330
195 196 195 195 197 199 202 204 206 207 209 212 213 214 216 215 219 230 234 226 228 232 224 225 231 229 228 231 228 226 228 230 234 235 229 231 239 244 243 243 244 246 249 250 249 248 248 248 254 257 248 245 252 258 260 259 266 279 281 276 281 281 273 280 290 294 300 307 312 318 328 334 337 332 321 314 315 318 320 324 334 341 341 336 330
198 198 197 197 197 197 200 205 208 210 211 213 215 216 218 218 220 228 235 235 232 231 229 230 232 230 232 235 233 231 232 232 235 239 234 228 229 236 243 244 244 247 248 248 248 248 249 249 250 252 251 252 255 260 263 262 266 277 284 281 284 284 281 284 290 294 299 303 307 314 319 321 315 307 309 319 322 322 325 330 335 335 332 331 330
202 204 205 205 204 200 200 204 208 211 214 216 216 218 220 221 221 224 232 238 239 237 234 233 237 237 234 237 238 234 233 234 236 240 239 234 231 233 239 246 248 249 253 254 252 251 255 256 255 258 258 253 250 252 256 262 270 273 270 272 281 286 286 285 286 287 287 289 293 297 298 299 299 303 320 334 331 327 329 328 326 324 321 321 319
199 203 206 210 213 210 205 207 211 213 215 217 218 220 222 223 222 223 229 236 242 244 240 235 236 236 233 238 241 237 235 236 237 239 240 239 237 236 239 244 246 247 253 258 256 251 253 254 252 257 263 262 263 263 253 250 259 264 262 263 267 269 271 271 273 276 279 284 289 294 297 303 309 317 326 327 321 320 322 320 317 311 306 307 310
200 202 204 207 213 214 211 210 213 216 218 219 220 219 220 223 225 226 230 237 243 242 236 232 231 232 233 240 243 241 238 239 239 238 238 239 238 238 240 241 243 246 250 255 259 257 256 256 256 259 263 264 267 268 262 255 259 265 267 266 262 261 266 271 275 280 284 290 295 300 303 306 310 314 315 312 312 313 312 308 303 302 306 311 315
204 207 210 212 213 212 212 212 211 214 217 220 221 220 217 217 220 223 226 231 240 240 232 226 226 230 233 237 241 241 238 240 243 241 239 240 238 239 242 241 242 248 247 248 256 259 257 259 263 264 264 263 263 267 273 274 275 278 280 278 275 274 276 278 282 286 291 294 296 299 300 301 303 302 300 302 307 306 301 299 301 305 312 317 320
202 207 213 219 220 219 219 218 215 215 216 219 223 223 221 219 217 218 219 218 221 229 230 225 226 230 230 232 237 238 235 238 245 245 243 244 243 243 246 247 249 251 248 247 254 257 258 262 269 271 271 271 269 271 275 277 278 280 281 278 275 275 277 280 285 290 293 294 295 296 294 295 297 298 298 300 300 296 296 300 305 310 316 320 321
214 218 221 222 223 223 223 223 221 219 218 218 220 222 224 224 223 223 224 221 217 221 225 225 229 234 232 230 235 235 233 237 241 244 248 252 254 253 249 248 254 259 260 263 267 268 268 268 268 270 275 279 281 281 279 278 280 282 283 282 279 278 280 284 289 294 296 297 297 298 298 299 302 306 308 306 301 299 302 306 309 312 315 316 316
232 234 235 233 230 230 230 229 228 226 223 219 220 224 227 228 229 229 230 230 228 230 230 225 227 232 231 231 233 235 239 240 237 236 241 250 258 260 254 248 250 255 261 272 280 280 277 275 271 267 268 271 275 278 277 280 283 285 286 287 287 285 285 287 290 294 297 298 298 301 304 305 306 311 314 311 306 307 308 308 310 311 310 310 311
233 234 236 236 235 238 239 239 238 237 233 228 227 230 231 229 232 234 235 235 234 237 238 233 231 231 231 230 227 232 243 245 238 236 239 246 255 259 254 250 252 252 251 258 269 270 272 280 285 282 279 277 274 271 270 272 279 283 285 288 289 288 285 286 291 294 296 297 299 303 307 305 302 307 312 308 302 302 302 304 305 304 303 304 305
217 219 222 227 233 237 238 238 239 239 238 235 233 234 234 232 234 236 238 239 238 239 239 238 238 238 236 234 230 234 243 244 242 245 245 242 246 249 248 250 257 259 252 248 258 267 269 272 272 271 274 276 276 274 272 269 269 272 276 280 282 283 285 290 297 300 302 303 301 300 301 298 293 297 302 295 286 288 292 295 297 299 301 303 303
208 214 216 218 225 228 229 232 235 236 237 236 235 236 237 238 239 240 242 243 243 243 242 239 240 239 237 237 234 237 243 241 238 243 241 231 232 237 242 250 259 265 262 252 250 257 262 261 259 259 261 262 263 267 270 269 267 266 267 271 274 277 280 284 286 287 289 294 297 297 296 291 285 286 288 282 279 283 288 292 296 300 304 305 306
204 213 216 218 222 224 228 233 234 233 235 238 237 236 237 239 239 239 242 243 244 245 244 240 238 238 237 236 234 236 242 241 234 234 235 231 232 238 245 252 258 264 266 258 248 246 250 255 259 263 265 266 266 266 266 266 267 268 269 272 276 279 283 286 285 280 277 279 282 284 285 283 281 281 280 279 281 287 293 298 301 304 306 307 308
152 156 186 207 220 226 231 237 237 236 238 240 239 236 236 238 238 237 237 238 240 241 241 241 241 241 239 237 235 235 237 239 236 234 234 235 238 245 251 256 260 262 263 260 254 250 251 255 261 266 269 271 271 267 266 266 267 269 271 275 279 283 286 287 286 284 283 282 281 279 278 279 281 281 282 284 289 293 296 299 302 304 305 307 309
113 112 119 129 132 143 180 199 212 226 233 236 236 236 236 237 236 235 235 236 239 240 240 242 242 241 239 238 234 230 230 235 237 233 232 234 239 245 251 256 261 263 261 259 258 257 258 260 264 267 269 271 271 269 266 265 264 267 270 274 277 280 282 282 282 284 286 286 285 283 281 281 282 283 287 290 294 296 296 297 299 301 303 306 307
106 107 108 108 106 102 104 126 156 186 206 215 222 230 234 235 234 237 240 242 243 243 241 245 246 242 240 238 230 220 221 229 231 227 227 232 238 244 250 255 260 261 260 258 257 259 262 263 264 264 266 268 271 269 265 263 266 270 274 277 278 280 282 284 284 285 287 286 286 286 286 287 288 289 292 294 294 295 296 297 298 298 300 302 304
90 101 105 99 91 86 80 84 99 112 123 128 138 161 178 195 212 232 242 244 249 256 253 248 244 233 228 228 222 211 210 218 221 222 225 230 236 242 249 255 259 261 262 261 259 259 261 263 264 264 263 264 265 265 265 268 273 278 281 283 285 286 287 288 288 288 288 288 288 289 290 291 292 295 297 297 297 297 297 297 298 298 299 300 301
86 96 103 98 91 85 75 71 79 89 99 99 97 121 136 128 119 154 221 233 250 263 252 234 218 181 184 199 204 204 206 212 216 221 225 229 232 238 245 251 254 256 257 257 258 261 263 264 264 264 263 263 264 266 269 274 279 283 286 288 290 290 290 290 290 290 291 292 292 293 295 298 299 300 300 298 297 297 298 299 300 300 301 301 300
86 90 93 93 95 95 88 81 78 81 95 100 92 95 113 118 107 100 94 87 85 97 157 197 219 207 170 169 181 194 202 206 213 221 227 230 232 235 241 246 249 251 253 252 253 257 261 263 264 265 267 267 267 268 271 276 281 286 290 292 292 292 293 292 291 290 293 295 295 298 309 315 311 304 301 299 298 301 305 306 305 304 302 299 297
67 77 88 87 85 87 90 84 72 65 70 77 69 61 74 97 94 85 86 87 81 77 81 89 114 165 173 151 153 176 193 197 203 215 222 227 230 231 235 242 246 249 250 249 248 253 262 268 268 269 271 273 273 274 277 281 284 288 291 292 293 297 299 297 296 299 303 306 306 313 328 331 316 303 300 301 303 306 308 307 307 307 304 300 298
54 57 68 75 71 75 84 85 81 76 69 66 65 56 56 77 82 73 80 94 87 76 74 79 88 102 108 104 101 110 146 167 174 188 200 205 206 207 210 216 223 230 236 238 241 249 262 272 276 277 279 282 285 286 287 291 296 305 310 307 308 316 312 301 305 314 313 309 305 302 301 295 291 294 299 302 303 304 304 304 305 306 303 300 299
47 47 47 48 49 63 80 76 76 86 85 79 84 80 62 63 78 83 88 95 92 82 79 79 78 80 77 71 72 84 118 138 143 153 164 170 173 174 174 174 181 203 222 226 229 239 260 284 299 302 300 303 307 303 302 317 356 60 49 10 356 352 340 332 328 311 294 289 286 280 278 282 289 300 306 306 304 302 303 304 307 310 310 309 308
48 53 59 56 48 58 79 72 57 72 96 96 95 97 91 86 132 142 125 116 115 107 97 93 86 78 72 72 96 138 170 165 141 142 144 147 151 159 203 188 180 236 269 274 284 299 321 328 333 337 334 337 342 330 326 354 51 129 62 8 17 17 357 345 330 302 287 288 289 289 295 302 308 315 318 319 319 317 315 316 319 322 323 321 320
40 49 55 54 54 59 76 78 58 28 61 110 131 131 132 151 188 176 155 141 133 127 126 132 134 120 115 130 155 177 199 215 229 248 264 263 270 296 301 298 299 301 306 312 311 322 335 336 347 357 350 357 15 20 15 2 352 2 348 313 296 324 323 299 287 284 283 289 298 306 313 317 321 331 337 338 337 330 325 327 330 332 333 333 334
18 56 75 68 68 63 45 92 101 73 36 350 253 209 212 240 252 188 178 172 164 149 140 148 166 172 166 176 201 219 226 231 247 267 278 280 286 295 298 297 298 298 302 305 308 323 331 318 2 6 344 351 18 19 20 17 18 36 11 316 314 331 299 276 271 278 282 295 313 321 321 322 331 343 345 340 332 324 325 331 333 335 339 340 338
345 331 150 149 115 81 43 351 132 114 97 44 343 290 220 290 339 326 200 196 201 203 189 180 195 212 218 225 233 237 242 250 260 269 274 279 287 293 296 298 299 301 303 305 310 318 310 202 92 12 312 291 330 323 286 299 320 293 277 308 31 11 311 289 283 289 295 306 315 317 324 336 343 340 327 317 316 317 322 327 326 328 333 334 331
71 340 330 176 155 121 80 50 82 120 128 120 66 44 45 23 14 16 6 255 226 223 223 227 234 241 249 254 253 252 254 258 263 270 275 281 286 291 295 297 299 300 299 302 306 298 230 129 85 340 282 263 272 283 276 290 293 294 305 301 300 311 304 300 302 308 313 313 308 317 344 350 335 316 311 316 320 318 317 315 314 319 324 324 322
160 163 46 125 165 180 162 118 86 82 127 130 120 86 31 6 359 12 27 25 7 293 244 241 242 247 255 260 259 257 258 261 267 272 277 281 284 287 291 294 298 301 300 301 298 262 188 132 91 304 272 262 268 281 299 297 297 321 332 325 321 311 304 306 313 319 321 316 314 337 360 340 316 311 321 328 327 324 322 321 322 325 323 317 313
190 190 165 141 148 153 149 148 147 136 133 134 122 103 60 360 359 7 15 21 17 10 9 354 301 268 266 273 272 268 264 262 266 268 271 276 279 282 287 290 292 298 304 312 306 252 190 140 96 286 254 246 259 265 278 284 289 313 326 327 324 305 300 311 325 326 318 313 318 335 348 330 322 327 334 334 332 331 331 332 334 334 330 325 324
187 174 169 167 160 149 138 147 162 165 179 163 134 99 70 146 88 17 359 5 8 3 8 7 352 338 338 329 308 290 277 270 267 268 272 277 278 283 292 291 293 1 20 14 7 320 179 159 157 249 226 219 246 253 267 278 277 295 316 306 286 281 291 308 319 318 318 321 324 330 336 335 336 337 337 337 337 335 334 335 335 335 333 331 329
139 125 121 110 107 111 96 95 101 53 48 167 152 118 70 87 85 30 359 5 1 352 354 354 347 352 2 352 336 327 314 295 283 278 284 295 309 322 329 4 88 48 17 6 7 8 332 270 271 253 237 250 265 265 280 295 286 278 283 281 275 281 296 307 310 317 327 336 340 343 347 346 339 332 331 334 334 331 331 332 333 333 332 329 324
107 84 83 76 61 49 41 38 35 34 41 109 156 129 77 49 46 43 39 49 35 360 1 348 340 352 0 343 331 348 17 31 42 40 9 360 18 29 39 60 64 32 0 348 346 343 335 323 298 275 265 265 267 265 264 265 263 263 271 276 280 287 293 296 301 313 329 344 349 345 339 333 327 324 330 333 330 327 328 327 324 321 316 315 319
148 94 70 55 43 38 36 37 37 39 54 100 130 113 88 58 56 62 43 2 315 110 64 360 339 350 352 315 305 8 72 75 66 58 48 43 53 61 57 50 41 12 333 315 263 258 263 269 276 276 274 273 274 273 268 260 258 261 268 276 284 290 293 297 304 310 322 339 344 335 321 316 316 322 327 326 322 320 318 313 309 309 312 318 325
206 203 43 37 33 22 16 24 29 23 36 78 104 106 102 84 64 61 54 28 17 36 80 68 331 308 185 260 281 304 69 81 73 65 54 40 36 43 52 44 237 227 221 204 194 208 222 229 228 228 232 234 242 252 259 264 267 266 264 268 276 281 284 291 302 304 305 312 320 319 315 311 308 309 314 318 320 317 311 308 310 315 319 324 327
236 231 326 326 356 2 2 13 16 10 20 45 73 85 75 69 79 94 88 68 42 139 135 135 260 241 228 254 274 281 291 293 289 81 61 30 336 277 241 227 229 231 232 232 224 222 230 236 237 238 235 227 223 224 225 235 253 258 259 265 271 276 283 296 306 306 298 292 294 302 307 308 304 298 297 305 310 310 309 311 317 320 320 321 322
256 228 227 274 323 331 337 359 2 339 316 306 304 63 59 23 234 157 103 80 67 202 180 257 268 265 270 275 271 276 289 290 256 120 58 356 302 282 261 244 244 248 249 248 245 244 252 255 252 254 254 245 240 241 239 236 245 256 264 270 271 275 287 299 302 299 292 286 288 293 299 305 305 300 296 298 301 304 305 306 307 306 307 311 314
236 237 251 261 274 289 306 325 303 290 296 306 303 186 179 223 220 192 195 208 197 62 19 282 284 291 296 292 288 294 299 279 188 120 36 348 310 299 282 260 254 256 259 262 260 255 262 269 265 262 263 260 255 254 254 253 256 262 267 272 275 282 292 299 299 293 285 282 285 289 291 292 294 297 300 303 304 305 305 305 304 304 305 307 309
208 212 247 271 286 307 315 261 274 289 303 312 292 255 245 240 226 219 224 230 244 330 5 303 308 314 307 300 302 315 335 116 119 70 353 313 327 328 315 293 274 263 260 266 269 264 264 273 274 271 270 268 267 265 264 264 266 271 278 284 290 294 298 300 299 292 286 283 285 286 285 283 284 288 295 299 299 300 301 302 303 304 305 306 309
226 215 220 240 261 281 237 242 272 295 299 289 282 280 279 268 251 242 243 241 254 278 331 307 296 300 301 300 303 358 91 86 59 272 246 246 353 342 323 315 303 286 275 276 279 275 270 271 274 277 277 277 278 280 281 281 284 290 295 297 297 296 294 292 291 290 287 286 285 283 282 284 287 290 293 294 294 295 297 299 302 305 307 309 310
230 218 215 229 241 242 245 255 268 270 262 272 286 294 299 296 274 251 245 236 234 242 234 241 247 255 285 301 300 258 139 173 225 224 219 218 240 254 256 265 283 294 302 305 301 296 291 284 282 284 283 281 283 284 285 289 294 296 294 291 290 289 289 289 289 287 287 287 288 287 287 289 291 294 295 297 298 300 303 306 309 310 309 308 307
220 202 197 220 236 247 264 278 284 274 267 283 305 309 311 322 327 271 234 240 237 232 228 235 251 266 307 319 308 289 253 239 237 237 244 242 237 242 253 263 268 278 296 309 310 319 333 336 327 315 303 296 294 293 295 300 298 290 285 285 287 288 288 287 286 286 288 290 292 293 293 294 296 298 301 303 306 308 310 311 312 310 308 307 307
208 185 188 213 224 234 256 272 275 268 264 266 262 267 293 317 299 224 224 236 248 252 249 250 266 305 329 316 307 307 307 302 303 307 284 268 259 258 259 261 264 268 273 279 290 312 335 339 329 320 314 310 308 311 316 313 296 284 283 287 289 289 290 290 290 291 292 294 295 296 296 298 300 303 306 308 309 311 313 314 314 313 312 311 310
204 185 195 213 214 219 229 231 224 231 252 264 263 249 221 212 228 237 244 253 267 279 283 282 294 314 305 286 284 305 319 317 326 331 299 287 281 272 263 259 260 262 263 266 274 295 327 330 315 306 304 302 306 318 319 299 285 284 288 291 291 291 293 294 294 295 296 297 298 299 301 303 306 309 311 312 313 315 317 316 314 312 311 310 309
211 197 208 214 207 205 213 222 233 250 267 274 263 234 221 227 238 251 264 274 284 291 289 286 290 291 285 279 285 305 312 309 314 324 315 310 307 297 283 273 264 259 257 257 256 261 282 307 307 304 299 290 287 297 297 286 282 285 288 289 290 292 293 293 294 295 296 298 300 301 303 305 308 310 311 313 315 317 317 315 312 310 309 308 308
201 210 224 223 217 211 209 210 219 237 253 239 216 217 232 240 241 247 254 256 258 262 267 274 277 277 279 286 291 297 305 313 317 318 319 324 327 319 310 306 292 273 262 254 250 253 262 274 280 286 289 283 280 284 285 283 284 287 288 289 290 292 293 293 293 294 296 298 300 301 303 304 305 307 308 310 313 315 314 311 310 310 309 309 309
197 221 224 217 209 206 208 209 209 209 210 210 206 209 225 233 231 246 256 251 252 263 267 265 266 273 280 286 286 287 287 285 288 296 315 329 325 308 300 302 301 293 283 272 263 261 264 265 264 265 269 273 277 281 282 283 285 288 290 290 291 291 292 293 294 295 297 298 299 300 303 305 307 308 311 313 314 314 312 310 310 310 310 310 310
218 214 201 189 192 195 201 215 223 226 230 230 225 221 227 236 236 237 246 253 256 259 260 261 263 269 274 276 281 290 288 276 271 285 312 318 308 297 292 294 298 301 306 309 314 318 305 290 289 292 292 293 299 291 280 282 286 290 291 291 292 293 294 295 296 297 298 300 302 305 310 313 315 316 319 320 318 314 311 310 310 307 306 307 308